DECAYED

STARLINK-5392, 54794 (Decayed)

Orbit data source: Space-Track

STARLINK-5392, 54794 was a payload satellite owned by SpaceX/Seattle (US) in LEO that was launched on Sat, 17 Dec 2022 UTC via an FALCON 9 launch vehicle from the Air Force Eastern Test Range (AFETR). Payload-class satellites include a variety of spacecraft equipped with specific instruments for various scientific and technological missions. These include communications satellites like Starlink; space stations such as the ISS; scientific satellites like the Hubble; Earth observation satellites from companies like Planet Labs, Umbra, and HawkEye 360; GPS; miniature CubeSats for education and research; and military/defense satellites.

Not visible in the next 10 days
Identifier
54794, 2022-175AN
Orbit
Decayed
Country
Flag of USUS
Related business
Manufacturer
SpaceX/Seattle
Mission
Decayed Commercial Communications
Bus & Motor
STARLINK, Unknown motor
Mass
305 kg wet, ~290 kg dry
Launch date (UTC)
2022-12-17 (4 years ago)
Launch vehicle
FALCON 9
Launch site
Air Force Eastern Test Range (AFETR)
Object type
Payload
Rocket body
Debris
Shape & HBR
Box + 1 Pan, 10.1 m
Radar Cross Section
13.562 m², Large (>1 m²)

Expand to show TLE details & history
Last TLE update: 1 year ago

TLE from 1 year ago
0 STARLINK-5392
1 54794U 22175AN  25108.14199722  .05404424  11904-4  18408-2 0  9992
2 54794  53.1688 349.3837 0009635 246.1866 249.1212 16.24679751129680
Epoch: 2025-04-18T03:24Z
TLE epoch observation values (Epoch: 2025-04-18T03:24:28.559Z)
Latitude
34.44436°
Longitude
-118.95129°
Altitude
211.613 km
Speed
7.783 km/s
True Right ascension
09h 14m 41s
True Declination
34° 16' 15"
Sunlit
Object was in daylight at epoch
Visualization orbit readout
Latitude
Unknown
Longitude
Unknown
Altitude
Unknown
Speed
Unknown
Apparent Right ascension
Unknown
Apparent Declination
Unknown
Sunlit
N/A
Visualization observer readout
Local Sidereal Time
21:55:06
Azimuth
Unknown
Elevation
Unknown
Doppler factor
Unknown
Orbital elements
Apogee altitude
213.486 km
Perigee altitude
200.797 km
Semi-major axis
6,585.278 km
Eccentricity
0.00096
Inclination
53.1688°
RAAN
349.3837°
Arg. of periapsis
246.1866°
True anomaly
249.01809°
Mean anomaly
249.1212°
Eccentric anomaly
249.06964°
Mean motion
4.06146 °/min
Orbital period
88.64 mins
BSTAR
0.0018408
Loading maneuver chart data...
Computing Atmospheric mass density...
Loading historical data...
Loading historical data...
Loading historical data...
Loading historical data...
Loading historical data...
Loading historical data...
Loading historical data...

Documentation

Showing up to 5 results
|